User: anonymous
Location: Caltech
(34.1382°N, 118.1253°W)
Time: 12:14:17
(UTC-07:00)
Language:

Cosmos 1484 Rocket - Orbit

View from above orbital plane
View from above orbital plane
View from above satellite
View from above satellite

Ground track
Ground track

The orbit data is extracted from the following two-line orbital elements,

1 14208U 83075B   14211.21103379  .00001439  00000-0  98132-4 0   785
2 14208 097.4218 246.5352 0043657 153.9690 206.3746 15.07024059688680
Epoch (UTC): 30 July 2014 05:03:53
Eccentricity: 0.0043657
inclination: 97.4218°
perigee height: 515 km
apogee height: 575 km
right ascension of ascending node: 246.5352°
argument of perigee: 153.9690°
revolutions per day: 15.07024059
mean anomaly at epoch: 206.3746°
orbit number at epoch: 68868

The dashed part of the orbit path shows where the satellite is in the earth's shadow,  

DLR